{"data":{"norad_id":68952,"intl_designator":"2026-099B","name":"STARLINK-37308","alt_names":[],"object_type":"PAYLOAD","status":"ACTIVE","operator":null,"country":"US","launch_date":"2026-05-01","launch_site_code":"AFETR","launch_vehicle":null,"mission":null,"orbit_class":"UNKNOWN","rcs_meters":null,"size_class":null,"mass_kg":null,"dimensions":null,"purposes":["comms"],"wikipedia_slug":null,"has_3d_model":false,"image_url":null,"decayed_at":null,"tle_current":{"epoch":"2026-05-25T04:00:03.998880Z","epoch_age_seconds":60730,"freshness":"FRESH","line1":"1 68952U 26099B   26145.16671295 -.00746523  00000+0 -14294-1 0  9990","line2":"2 68952  53.1596 270.7490 0001438  79.8654 240.5074 15.49783082  4963","mean_motion":15.49783082,"eccentricity":0.0001438,"inclination_deg":53.1596,"raan_deg":270.749,"arg_perigee_deg":79.8654,"mean_anomaly_deg":240.5074,"bstar":-0.014294,"rev_number":496,"period_min":92.916229162966,"perigee_km":416.38289825014,"apogee_km":418.33728321343,"semimajor_km":6795.4970907318,"source":"CELESTRAK","updated_at":"2026-05-25T13:38:22.071885Z"}}}